Huntsville, AL

3:57 AM CDT on October 01, 2016 (GMT -0500)
Huntsville International

Weather History for KHSV - January, 2013

Change the Weather History Date:

Wednesday, January 30, 2013

  Actual Average Record
Temperature  
Mean Temperature 56 °F 42 °F  
Max Temperature 72 °F 52 °F 77 °F (2002)
Min Temperature 39 °F 33 °F -11 °F (1966)
Degree Days  
Heating Degree Days 9 23  
Month to date heating degree days 574 711  
Since 1 July heating degree days 1682 1892  
Cooling Degree Days 0 0  
Month to date cooling degree days 6 0  
Year to date cooling degree days 6 0  
Growing Degree Days 6 (Base 50)    
Moisture  
Dew Point 51 °F    
Average Humidity 80    
Maximum Humidity 100    
Minimum Humidity 59    
Precipitation  
Precipitation 1.33 in 0.15 in 1.33 in (2013)
Month to date precipitation 8.59 4.73  
Year to date precipitation 8.59 4.73  
Snow  
Snow 0.00 in - - ()
Month to date snowfall 0.7  
Since 1 July snowfall 0.7  
Snow Depth 0.00 in    
Sea Level Pressure  
Sea Level Pressure 29.67 in    
Wind  
Wind Speed 15 mph (WSW)    
Max Wind Speed 37 mph    
Max Gust Speed 47 mph    
Visibility 7 miles    
Events Rain , Thunderstorm    
T = Trace of Precipitation, MM = Missing Value Source: NWS Daily Summary

Daily Weather History Graph

Daily Weather History Graph

Search for Another Location

Airport or City:

Trip Planner

Search our weather history database for the weather conditions in past years. The results will help you decide how hot, cold, wet, or windy it might be!

Date:

Astronomy

Jan. 30, 2013 Rise Set
Actual Time 6:46 AM CST 5:14 PM CST
Civil Twilight 6:19 AM CST 5:41 PM CST
Nautical Twilight 5:49 AM CST 6:11 PM CST
Astronomical Twilight 5:20 AM CST 6:41 PM CST
Moon 9:00 PM CST (1/30) 8:25 AM CST (1/30)
Length of Visible Light 11h 21m
Length of Day
10h 28m
Waning Gibbous, 87% of the Moon is Illuminated
Jan 30
Waning Gibbous
Feb 3
Last Quarter
Feb 10
New
Feb 17
First Quarter
Feb 25
Full

Hourly Weather History & Observations

Time (CST) Temp. Windchill Dew Point Humidity Pressure Visibility Wind Dir Wind Speed Gust Speed Precip Events Conditions
12:53 AM 70.0 °F - 63.0 °F 78% 29.71 in 10.0 mi South 20.7 mph 32.2 mph N/A   Overcast
1:53 AM 70.0 °F - 63.0 °F 78% 29.68 in 10.0 mi South 18.4 mph 33.4 mph N/A   Overcast
2:53 AM 71.1 °F - 63.0 °F 75% 29.65 in 10.0 mi South 21.9 mph 36.8 mph N/A   Overcast
3:53 AM 72.0 °F - 63.0 °F 73% 29.61 in 10.0 mi South 26.5 mph 38.0 mph N/A   Overcast
4:35 AM 71.6 °F - 62.6 °F 73% 29.61 in 10.0 mi South 27.6 mph 39.1 mph N/A   Overcast
4:53 AM 72.0 °F - 64.0 °F 76% 29.60 in 10.0 mi South 28.8 mph 43.7 mph 0.00 in Rain Light Rain
5:14 AM 69.8 °F - 64.4 °F 83% 29.61 in 3.0 mi SSW 19.6 mph 32.2 mph 0.06 in Rain , Thunderstorm Heavy Thunderstorms and Rain
5:31 AM 69.8 °F - 64.4 °F 83% 29.60 in 9.0 mi SSW 16.1 mph 29.9 mph 0.09 in Rain , Thunderstorm Light Thunderstorms and Rain
5:53 AM 70.0 °F - 64.9 °F 84% 29.57 in 10.0 mi SSW 15.0 mph 25.3 mph 0.09 in Thunderstorm Thunderstorm
6:02 AM 62.6 °F - 57.2 °F 82% 29.61 in 9.0 mi NNW 31.1 mph 47.2 mph N/A Thunderstorm Thunderstorm
6:08 AM 57.2 °F - 53.6 °F 88% 29.64 in 2.5 mi NW 26.5 mph 47.2 mph 0.00 in Rain , Thunderstorm Heavy Thunderstorms and Rain
6:28 AM 57.2 °F - 55.4 °F 94% 29.66 in 1.8 mi NW 13.8 mph 26.5 mph 0.30 in Rain , Thunderstorm Heavy Thunderstorms and Rain
6:34 AM 55.4 °F - 55.4 °F 100% 29.67 in 2.0 mi NW 11.5 mph - 0.34 in Rain , Thunderstorm Heavy Thunderstorms and Rain
6:39 AM 55.4 °F - 55.4 °F 100% 29.66 in 1.5 mi NNW 8.1 mph 19.6 mph 0.41 in Rain , Thunderstorm Heavy Thunderstorms and Rain
6:45 AM 55.4 °F - 55.4 °F 100% 29.66 in 3.0 mi North 5.8 mph - 0.45 in Rain , Thunderstorm Thunderstorms and Rain
6:53 AM 55.9 °F - 55.0 °F 97% 29.65 in 3.0 mi North 3.5 mph - 0.45 in Rain Light Rain
7:46 AM 55.4 °F - 55.4 °F 100% 29.65 in 2.5 mi Calm Calm - 0.08 in Rain Heavy Rain
7:53 AM 55.9 °F - 55.0 °F 97% 29.65 in 2.0 mi SSE 5.8 mph - 0.11 in Rain Heavy Rain
8:53 AM 55.9 °F - 55.0 °F 97% 29.60 in 2.0 mi Calm Calm - 0.25 in Rain Heavy Rain
9:30 AM 55.4 °F - 53.6 °F 94% 29.65 in 7.0 mi SW 6.9 mph - 0.14 in Rain Light Rain
9:53 AM 55.9 °F - 54.0 °F 93% 29.65 in 7.0 mi SSW 5.8 mph - 0.16 in Rain Rain
10:53 AM 55.0 °F - 52.0 °F 89% 29.62 in 7.0 mi SW 4.6 mph - 0.10 in Rain Light Rain
11:53 AM 54.0 °F - 51.1 °F 90% 29.60 in 7.0 mi South 5.8 mph - 0.08 in Rain Rain
12:53 PM 55.0 °F - 52.0 °F 89% 29.59 in 10.0 mi South 11.5 mph - 0.05 in Rain Light Rain
1:17 PM 53.6 °F - 51.8 °F 94% 29.60 in 10.0 mi SW 13.8 mph 19.6 mph 0.00 in   Overcast
1:35 PM 53.6 °F - 51.8 °F 94% 29.60 in 10.0 mi SSW 11.5 mph - 0.00 in   Overcast
1:53 PM 54.0 °F - 51.1 °F 90% 29.58 in 10.0 mi SSW 10.4 mph - 0.00 in   Overcast
2:33 PM 53.6 °F - 51.8 °F 94% 29.59 in 10.0 mi South 10.4 mph - N/A   Overcast
2:53 PM 54.0 °F - 51.1 °F 90% 29.58 in 10.0 mi South 10.4 mph - N/A   Overcast
3:53 PM 54.0 °F - 51.1 °F 90% 29.58 in 10.0 mi SW 13.8 mph - N/A   Overcast
4:39 PM 51.8 °F - 48.2 °F 88% 29.61 in 2.5 mi West 17.3 mph 23.0 mph 0.02 in Rain Heavy Rain
4:45 PM 51.8 °F - 46.4 °F 82% 29.61 in 5.0 mi WSW 16.1 mph 25.3 mph 0.02 in Rain Light Rain
4:53 PM 52.0 °F - 45.0 °F 77% 29.60 in 10.0 mi West 18.4 mph 28.8 mph 0.02 in Rain Light Rain
5:53 PM 46.9 °F - 42.1 °F 83% 29.66 in 6.0 mi West 17.3 mph 27.6 mph 0.00 in Rain Rain
6:49 PM 44.6 °F 34.7 °F 39.2 °F 81% 29.74 in 6.0 mi WNW 29.9 mph 38.0 mph 0.01 in Rain Light Rain
6:53 PM 44.1 °F 34.8 °F 39.0 °F 82% 29.75 in 4.0 mi WNW 25.3 mph 38.0 mph 0.01 in Rain Light Rain
7:24 PM 42.8 °F 35.1 °F 37.4 °F 81% 29.77 in 10.0 mi West 16.1 mph 25.3 mph 0.01 in   Overcast
7:53 PM 42.1 °F 34.2 °F 34.0 °F 73% 29.78 in 10.0 mi West 16.1 mph 28.8 mph 0.01 in   Overcast
8:53 PM 42.1 °F 32.3 °F 30.0 °F 62% 29.83 in 10.0 mi WNW 24.2 mph 38.0 mph 0.00 in   Overcast
9:53 PM 39.9 °F 30.8 °F 27.0 °F 60% 29.90 in 10.0 mi WNW 18.4 mph 29.9 mph N/A   Overcast
10:53 PM 39.0 °F 29.3 °F 28.0 °F 65% 29.94 in 10.0 mi WNW 19.6 mph 27.6 mph N/A   Overcast
11:53 PM 39.0 °F 30.6 °F 27.0 °F 62% 29.97 in 10.0 mi WNW 15.0 mph 24.2 mph N/A   Overcast